Terug naar catalogus

ARIANE 44LP DEB

ActiefHEO
NORAD 25540·DEBRIS·🇫🇷 France

Gelanceerd Dec 11, 1988 vanaf Guiana Space Centre

Loading…

Volgende Passages (komende 24 uur)

TLE

VersSource: Space-Track

Epoch: Sep 14, 2026, 15:47 UTC

1 25540U 88109G   26257.65784489  .00003590  00000-0  37537-2 0  9999
2 25540   6.6271 238.6622 6556333  45.6248 352.2062  3.16589684278073

Volg ARIANE 44LP DEB in realtime met AllMySat

Download on the App Store